• In Deutschland
  • Länderverzeichnis
  • Für 7 Tage
  • Wassertemperatur
  • Satellitenkarten
  • Wetterkarte
  • Widgets
  • user-avatar
    Anmelden

    Stündliche Wetter Lowetsch

    Heute, 22 Juli, Sonntag

    Zeit Temperatur Niederschläge Wind Luftdruck Luftfeuchtigkeit
    00:00 +21°C° 0 mm 2 m/S 734 mmHg 59%
    01:00 +21°C° 0 mm 2 m/S 734 mmHg 59%
    02:00 +21°C° 0 mm 2 m/S 734 mmHg 63%
    03:00 +22°C° 0 mm 1 m/S 734 mmHg 63%
    04:00 +21°C° 0 mm 1 m/S 734 mmHg 63%
    05:00 +21°C° 0 mm 1 m/S 734 mmHg 63%
    06:00 +23°C° 0 mm 1 m/S 734 mmHg 59%
    07:00 +25°C° 0 mm 1 m/S 734 mmHg 55%
    08:00 +27°C° 0 mm 1 m/S 734 mmHg 51%
    09:00 +27°C° 0 mm 0 m/S 734 mmHg 47%
    10:00 +29°C° 0 mm 0 m/S 733 mmHg 42%
    11:00 +31°C° 0 mm 0 m/S 733 mmHg 38%
    12:00 +34°C° 0 mm 1 m/S 733 mmHg 36%
    13:00 +34°C° 0 mm 1 m/S 732 mmHg 34%
    14:00 +35°C° 0 mm 1 m/S 732 mmHg 32%
    15:00 +34°C° 0 mm 1 m/S 731 mmHg 36%
    16:00 +33°C° 0 mm 1 m/S 731 mmHg 39%
    17:00 +32°C° 0 mm 2 m/S 731 mmHg 42%
    18:00 +30°C° 0,1 mm 2 m/S 731 mmHg 48%
    19:00 +28°C° 0,1 mm 2 m/S 730 mmHg 55%
    20:00 +26°C° 0,1 mm 2 m/S 730 mmHg 61%
    21:00 +26°C° 0,3 mm 2 m/S 730 mmHg 64%
    22:00 +25°C° 0,3 mm 2 m/S 731 mmHg 66%
    23:00 +24°C° 0,3 mm 2 m/S 731 mmHg 69%

    Morgen, 23 Juli, Montag

    Zeit Temperatur Niederschläge Wind Luftdruck Luftfeuchtigkeit
    00:00 +23°C° 1 mm 2 m/S 731 mmHg 74%
    01:00 +21°C° 1 mm 2 m/S 731 mmHg 80%
    02:00 +21°C° 1 mm 2 m/S 731 mmHg 85%
    03:00 +20°C° 0 mm 2 m/S 731 mmHg 85%
    04:00 +20°C° 0 mm 2 m/S 730 mmHg 85%
    05:00 +20°C° 0 mm 2 m/S 730 mmHg 85%
    06:00 +21°C° 0 mm 2 m/S 730 mmHg 80%
    07:00 +24°C° 0 mm 1 m/S 730 mmHg 75%
    08:00 +25°C° 0 mm 1 m/S 730 mmHg 70%
    09:00 +27°C° 0,2 mm 1 m/S 730 mmHg 65%
    10:00 +28°C° 0,2 mm 2 m/S 730 mmHg 61%
    11:00 +29°C° 0,2 mm 2 m/S 730 mmHg 56%
    12:00 +30°C° 0,4 mm 2 m/S 729 mmHg 54%
    13:00 +30°C° 0,4 mm 2 m/S 729 mmHg 52%
    14:00 +30°C° 0,4 mm 2 m/S 729 mmHg 50%
    15:00 +30°C° 0,5 mm 2 m/S 728 mmHg 53%
    16:00 +29°C° 0,5 mm 1 m/S 728 mmHg 57%
    17:00 +28°C° 0,5 mm 1 m/S 728 mmHg 60%
    18:00 +27°C° 1,3 mm 1 m/S 728 mmHg 67%
    19:00 +25°C° 1,3 mm 1 m/S 728 mmHg 73%
    20:00 +23°C° 1,3 mm 1 m/S 728 mmHg 80%
    21:00 +23°C° 1,9 mm 1 m/S 728 mmHg 82%
    22:00 +22°C° 2 mm 1 m/S 728 mmHg 84%
    23:00 +22°C° 2 mm 1 m/S 729 mmHg 85%

    übermorgen, 24 Juli, Dienstag

    Zeit Temperatur Niederschläge Wind Luftdruck Luftfeuchtigkeit
    00:00 +21°C° 0,1 mm 1 m/S 728 mmHg 87%
    01:00 +21°C° 0,1 mm 1 m/S 728 mmHg 88%
    02:00 +20°C° 0,1 mm 1 m/S 727 mmHg 90%
    03:00 +19°C° 0,3 mm 2 m/S 727 mmHg 90%
    04:00 +19°C° 0,3 mm 2 m/S 727 mmHg 91%
    05:00 +18°C° 0,3 mm 2 m/S 727 mmHg 92%
    06:00 +19°C° 0,2 mm 2 m/S 728 mmHg 88%
    07:00 +20°C° 0,2 mm 2 m/S 728 mmHg 85%
    08:00 +21°C° 0,2 mm 2 m/S 728 mmHg 82%
    09:00 +23°C° 0,3 mm 2 m/S 729 mmHg 76%
    10:00 +25°C° 0,3 mm 3 m/S 729 mmHg 71%
    11:00 +26°C° 0,3 mm 3 m/S 729 mmHg 65%
    12:00 +27°C° 0,7 mm 3 m/S 729 mmHg 63%
    13:00 +28°C° 0,7 mm 3 m/S 729 mmHg 60%
    14:00 +28°C° 0,7 mm 3 m/S 728 mmHg 58%
    15:00 +28°C° 0,9 mm 3 m/S 728 mmHg 60%
    16:00 +28°C° 0,9 mm 2 m/S 728 mmHg 62%
    17:00 +28°C° 0,9 mm 2 m/S 728 mmHg 64%
    18:00 +26°C° 0,5 mm 2 m/S 728 mmHg 69%
    19:00 +25°C° 0,5 mm 1 m/S 728 mmHg 74%
    20:00 +23°C° 0,5 mm 1 m/S 729 mmHg 79%
    21:00 +23°C° 1 mm 1 m/S 729 mmHg 81%
    22:00 +22°C° 1 mm 1 m/S 729 mmHg 83%
    23:00 +21°C° 1 mm 1 m/S 729 mmHg 85%

    25 Juli, Mittwoch

    Zeit Temperatur Niederschläge Wind Luftdruck Luftfeuchtigkeit
    00:00 +21°C° 0,4 mm 1 m/S 729 mmHg 86%
    01:00 +21°C° 0,4 mm 1 m/S 729 mmHg 87%
    02:00 +21°C° 0,4 mm 1 m/S 729 mmHg 87%
    03:00 +21°C° 0,7 mm 1 m/S 729 mmHg 88%
    04:00 +20°C° 0,7 mm 1 m/S 729 mmHg 90%
    05:00 +20°C° 0,7 mm 1 m/S 729 mmHg 91%
    06:00 +21°C° 0,5 mm 1 m/S 730 mmHg 88%
    07:00 +21°C° 0,5 mm 2 m/S 730 mmHg 85%
    08:00 +23°C° 0,5 mm 2 m/S 730 mmHg 83%
    09:00 +24°C° 0,7 mm 2 m/S 730 mmHg 79%
    10:00 +25°C° 0,7 mm 2 m/S 730 mmHg 75%
    11:00 +26°C° 0,7 mm 2 m/S 730 mmHg 72%
    12:00 +26°C° 0,5 mm 2 m/S 730 mmHg 69%
    13:00 +27°C° 0,5 mm 2 m/S 730 mmHg 66%
    14:00 +28°C° 0,5 mm 2 m/S 730 mmHg 62%
    15:00 +28°C° 0,5 mm 2 m/S 730 mmHg 63%
    16:00 +28°C° 0,5 mm 1 m/S 730 mmHg 63%
    17:00 +28°C° 0,5 mm 1 m/S 730 mmHg 63%
    18:00 +26°C° 0,8 mm 1 m/S 730 mmHg 69%
    19:00 +25°C° 0,8 mm 1 m/S 730 mmHg 74%
    20:00 +24°C° 0,8 mm 1 m/S 730 mmHg 80%
    21:00 +23°C° 0,1 mm 1 m/S 731 mmHg 80%
    22:00 +23°C° 0,1 mm 1 m/S 731 mmHg 81%
    23:00 +22°C° 0,1 mm 1 m/S 731 mmHg 82%

    26 Juli, Donnerstag

    Zeit Temperatur Niederschläge Wind Luftdruck Luftfeuchtigkeit
    00:00 +22°C° 0,5 mm 1 m/S 731 mmHg 83%
    01:00 +22°C° 0,5 mm 1 m/S 731 mmHg 84%
    02:00 +21°C° 0,5 mm 1 m/S 731 mmHg 86%
    03:00 +21°C° 0,3 mm 1 m/S 731 mmHg 87%
    04:00 +21°C° 0,3 mm 1 m/S 731 mmHg 88%
    05:00 +21°C° 0,3 mm 1 m/S 731 mmHg 88%
    06:00 +22°C° 0,3 mm 1 m/S 731 mmHg 85%
    07:00 +23°C° 0,3 mm 1 m/S 732 mmHg 82%
    08:00 +24°C° 0,3 mm 1 m/S 732 mmHg 79%
    09:00 +25°C° 0,6 mm 1 m/S 732 mmHg 75%
    10:00 +26°C° 0,6 mm 1 m/S 732 mmHg 72%
    11:00 +27°C° 0,6 mm 1 m/S 732 mmHg 68%
    12:00 +28°C° 0,5 mm 1 m/S 732 mmHg 65%
    13:00 +28°C° 0,5 mm 1 m/S 732 mmHg 63%
    14:00 +29°C° 0,5 mm 1 m/S 731 mmHg 60%
    15:00 +29°C° 0,1 mm 1 m/S 731 mmHg 60%
    16:00 +29°C° 0,1 mm 1 m/S 731 mmHg 60%
    17:00 +29°C° 0,1 mm 1 m/S 731 mmHg 61%
    18:00 +27°C° 0,1 mm 1 m/S 732 mmHg 66%
    19:00 +26°C° 0,1 mm 1 m/S 732 mmHg 72%
    20:00 +24°C° 0,1 mm 1 m/S 732 mmHg 77%
    21:00 +24°C° 0,5 mm 1 m/S 732 mmHg 78%
    22:00 +23°C° 0,5 mm 1 m/S 732 mmHg 79%
    23:00 +23°C° 0,5 mm 1 m/S 732 mmHg 80%

    27 Juli, Freitag

    Zeit Temperatur Niederschläge Wind Luftdruck Luftfeuchtigkeit
    00:00 +23°C° 0,2 mm 1 m/S 732 mmHg 81%
    01:00 +22°C° 0,2 mm 1 m/S 732 mmHg 81%
    02:00 +22°C° 0,2 mm 1 m/S 732 mmHg 82%
    03:00 +22°C° 0,1 mm 1 m/S 733 mmHg 83%
    04:00 +21°C° 0,1 mm 1 m/S 733 mmHg 84%
    05:00 +21°C° 0,1 mm 1 m/S 733 mmHg 85%
    06:00 +23°C° 0,1 mm 1 m/S 733 mmHg 81%
    07:00 +24°C° 0,1 mm 1 m/S 733 mmHg 77%
    08:00 +25°C° 0,1 mm 1 m/S 733 mmHg 73%
    09:00 +27°C° 0,4 mm 1 m/S 733 mmHg 69%
    10:00 +28°C° 0,4 mm 2 m/S 733 mmHg 65%
    11:00 +29°C° 0,4 mm 2 m/S 733 mmHg 60%
    12:00 +30°C° 0,2 mm 2 m/S 733 mmHg 57%
    13:00 +31°C° 0,2 mm 2 m/S 733 mmHg 54%
    14:00 +31°C° 0,2 mm 2 m/S 732 mmHg 51%
    15:00 +31°C° 0,1 mm 2 m/S 732 mmHg 51%
    16:00 +31°C° 0,1 mm 2 m/S 732 mmHg 52%
    17:00 +31°C° 0,1 mm 1 m/S 732 mmHg 53%
    18:00 +29°C° 0 mm 1 m/S 732 mmHg 58%
    19:00 +28°C° 0 mm 1 m/S 732 mmHg 63%
    20:00 +26°C° 0 mm 1 m/S 732 mmHg 69%
    21:00 +25°C° 0,4 mm 1 m/S 733 mmHg 71%
    22:00 +25°C° 0,4 mm 1 m/S 733 mmHg 73%
    23:00 +24°C° 0,4 mm 1 m/S 733 mmHg 75%
    Mehr zeigen